Miscellaneous Local Product
Issued by NWS Hastings, NE

Home | Current Version | Previous Version | Graphics & Text | Print | Product List | Glossary On
Versions: 1 2 3 4 5 6 7 8 9 10 11 12 13 14 15 16 17 18 19 20 21 22 23 24 25 26 27 28 29 30 31 32 33 34 35 36 37 38 39 40 41 42 43 44 45 46 47 48 49 50
000
AXUS43 KGID 031502
MISGRI

GID CWA HOURLY WEATHER ROUNDUP
NATIONAL WEATHER SERVICE HASTINGS NE
1000 AM CDT MON AUG 03 2015

NOTE: "FAIR" INDICATES FEW OR NO CLOUDS BELOW 12,000 FEET WITH NO
SIGNIFICANT WEATHER AND/OR OBSTRUCTIONS TO VISIBILITY.

...SOUTH CENTRAL NEBRASKA...

CITY           SKY/WX    TMP DP  RH WIND       PRES   REMARKS
GRAND ISLAND   MOSUNNY   69  62  78 E12       30.03F
HASTINGS       MOSUNNY   73  63  70 NE14      30.01R
KEARNEY        MOSUNNY   73  63  68 NE16G22   30.02F
ORD            MOSUNNY   72  59  63 SE9       29.98F
YORK           PTSUNNY   72  63  73 NE12      30.03S
AURORA           N/A     71  65  81 E10       30.02F
LEXINGTON      MOSUNNY   74  64  73 E13       30.02F
HOLDREGE       CLOUDY    72  65  80 E15       30.02R
HEBRON         CLOUDY    72  67  84 NE12      29.98R

...NEBRASKA PANHANDLE...

CITY           SKY/WX    TMP DP  RH WIND       PRES   REMARKS
CHADRON        MOSUNNY   70  59  68 E5        30.02S
ALLIANCE       MOSUNNY   72  59  63 SE14      30.04R
SCOTTSBLUFF    PTSUNNY   69  58  67 E7        30.04R
SIDNEY         MOSUNNY   74  56  53 E6        30.06R

...WESTERN AND NORTH CENTRAL NEBRASKA...

CITY           SKY/WX    TMP DP  RH WIND       PRES   REMARKS
VALENTINE      NOT AVBL
AINSWORTH      SUNNY     73  60  63 SE9       30.04R
ONEILL         CLOUDY    71  62  73 S8        30.02R
BROKEN BOW     MOSUNNY   72  61  68 SE12G18   30.03S
IMPERIAL       MOSUNNY   73  58  59 SE12      30.02S
NORTH PLATTE   MOSUNNY   71  62  73 SE13      30.02F
MCCOOK         SUNNY     75  64  68 E10       30.00S

...EASTERN NEBRASKA...

CITY           SKY/WX    TMP DP  RH WIND       PRES   REMARKS
NORFOLK        CLOUDY    68  62  81 E3        29.99F
TEKAMAH        PTSUNNY   72  64  76 CALM      30.00R
COLUMBUS       CLOUDY    68  57  68 SE5       30.00F
ALBION         CLOUDY    64  59  83 SE14      29.95F
OMAHA EPPLEY   PTSUNNY   74  61  63 E3        30.01R
MILLARD        PTSUNNY   74  60  61 E6        29.98S
LINCOLN        LGT RAIN  72  62  71 VRB5      30.00R
NEBRASKA CITY  CLOUDY    72  59  64 E5        30.00R
BEATRICE       CLOUDY    73  66  81 NE12      29.99R
FALLS CITY     CLOUDY    75  66  73 E8        29.95R

...NORTHERN KANSAS...

CITY           SKY/WX    TMP DP  RH WIND       PRES   REMARKS
GOODLAND       MOSUNNY   79  62  56 E6        30.03S
HILL CITY      SUNNY     79  63  57 NE3       29.98R
NORTON         SUNNY     75  61  60 E6        29.98S
PHILLIPSBURG   SUNNY     81  70  69 E7        29.97S HAZE
SMITH CENTER   SUNNY     79  68  69 E10       29.97S
HAYS           FAIR      79  64  61 NE6       29.97R
RUSSELL        MOSUNNY   79  68  69 VRB3      29.95R
CONCORDIA      SUNNY     80  70  71 N6        29.94S
SALINA         SUNNY     82  68  62 SW7       29.94S
TOPEKA         SUNNY     82  71  69 E5        29.95S



USA.gov is the U.S. government's official web portal to all federal, state and local government web resources and services.